[[{"header":{"parameterUnit":"m.s-1","parameterCategory":1,"la1":30.2991,"la2":30.254,"lo1":-89.0895,"lo2":-89.0444,"dy":0.0017,"dx":0.0017,"nx":28,"ny":28,"refTime":"2023-07-31T09:00:00:Z","depth":0,"parameterNumber":2,"parameterNumberName":"U-component_of_WINDS"},"data":[0,0,0,0,0,0,0,0,0,0,0,0,0,0,0,0,0,0,0,0,0,0,0,0,0,0,0,0,0,0,0,0,0,0,0,0,0,0,0,0,0,0,0,0,0,0,0,0,0,0,0,0,0,0,0,0,0,0,1.1209,1.121,0,1.1281,1.1282,1.1283,1.1322,1.1322,1.1322,1.1322,1.1398,1.14,1.1402,0,0,0,0,0,0,0,0,0,0,0,0,0,1.1108,1.111,1.1209,1.121,1.1211,1.1281,1.1282,1.1283,1.1322,1.1322,1.1322,1.1322,1.1398,1.14,1.1402,0,0,0,0,0,0,0,0,0,0,0,0,0,1.1163,1.1111,1.1209,1.1239,1.1242,1.1281,1.1282,1.1283,1.1322,1.1322,1.1322,1.1322,1.1397,1.14,1.1403,1.1418,0,0,1.1412,1.1413,0,0,0,0,0,0,0,0,1.116,1.1167,1.1233,1.1237,1.1241,1.1293,1.1274,1.1328,1.1322,1.1292,1.1322,1.1322,1.1363,1.1369,1.1382,1.1422,1.1425,1.1412,1.1414,1.1415,1.1416,0,0,0,0,0,0,0,1.1156,1.1164,1.1238,1.1234,1.1239,1.1249,1.1257,1.1285,1.1326,1.1294,1.1297,1.1305,1.1365,1.1379,1.1384,1.1426,1.1412,1.1414,1.1416,1.1417,1.1482,1.1482,0,0,0,0,0,0,1.1147,1.1161,1.1235,1.124,1.12,1.1251,1.126,1.1276,1.1326,1.1333,1.1305,1.1307,1.1374,1.1381,1.1387,1.1409,1.1415,1.1418,1.1419,1.1482,1.1482,1.1482,0,0,0,0,0,0,1.1145,1.1154,1.1232,1.1201,1.1212,1.1253,1.127,1.1277,1.1291,1.1334,1.1342,1.1312,1.1375,1.1383,1.141,1.1412,1.1419,1.1422,1.1482,1.1482,1.1482,1.1451,0,0,0,0,0,0,1.1142,1.1153,1.1158,1.1201,1.1213,1.1253,1.127,1.1278,1.1296,1.1299,1.1342,1.1349,1.1375,1.1405,1.1413,1.1416,1.1424,1.1482,1.1482,1.1482,1.1452,1.145,1.1448,0,0,0,0,0,1.1138,1.1147,1.1158,1.1167,1.1221,1.1253,1.126,1.1289,1.1296,1.1302,1.133,1.1348,1.141,1.1408,1.1417,1.1421,1.1482,1.1482,1.1482,1.1453,1.1451,1.1448,0,0,0,0,0,0,1.1104,1.1153,1.1166,1.1189,1.1216,1.126,1.1269,1.1286,1.1313,1.1315,1.135,1.136,1.1383,1.1405,1.1401,1.1438,1.1448,1.145,1.1423,1.1421,1.1419,1.1414,1.1426,0,0,0,0,0,1.1099,1.112,1.1162,1.1178,1.1192,1.1227,1.1243,1.1263,1.1293,1.1305,1.1334,1.1364,1.139,1.1407,1.1434,1.1455,1.1466,1.1463,1.1461,1.1459,1.146,1.1474,1.1473,1.1482,1.1482,1.1482,0,0,1.109,1.1119,1.113,1.1172,1.1196,1.1218,1.1237,1.1259,1.1276,1.1309,1.1336,1.1358,1.1394,1.1418,1.1431,1.1437,1.146,1.1459,1.1457,1.1459,1.1474,1.1473,1.1472,1.1482,1.1482,1.1482,0,0,1.1083,1.1107,1.1123,1.1146,1.1182,1.1206,1.1209,1.125,1.1266,1.1293,1.1318,1.1339,1.1384,1.1408,1.1426,1.1429,1.1447,1.1437,1.1426,1.1439,1.1439,1.1438,1.144,1.144,1.1437,1.1437,1.1437,0,1.1067,1.11,1.113,1.115,1.1169,1.1198,1.1215,1.1237,1.1279,1.1291,1.1297,1.1354,1.138,1.1411,1.1411,1.1425,1.1431,1.1432,1.1436,1.1436,1.1436,1.1438,1.1438,1.1436,1.1436,1.1436,1.1436,0,1.1078,1.1101,1.111,1.1149,1.1168,1.1187,1.1221,1.1237,1.1255,1.1278,1.1306,1.1338,1.1372,1.1381,1.1399,1.1414,1.1417,1.1429,1.144,1.1433,1.1436,1.1436,1.1434,1.1434,1.1435,1.1435,0,0,1.1053,1.1108,1.1111,1.1129,1.117,1.1189,1.1209,1.1241,1.1255,1.1283,1.1302,1.1338,1.135,1.137,1.1392,1.1403,1.1404,1.1414,1.1415,1.1411,1.1423,1.1414,1.1414,1.1416,1.1416,1.1416,1.142,0,1.1052,1.109,1.1117,1.1144,1.1166,1.1194,1.1212,1.124,1.1262,1.1284,1.131,1.1335,1.1348,1.1361,1.1373,1.1401,1.1407,1.1401,1.1434,1.1435,1.1425,1.1415,1.1406,1.1408,1.1421,1.1421,1.1422,0,1.1057,1.1084,1.1112,1.1151,1.1162,1.1177,1.1209,1.1229,1.1262,1.1277,1.13,1.1322,1.1346,1.1354,1.1388,1.1383,1.1399,1.1414,1.1415,1.142,1.1428,1.142,1.1409,1.141,1.1423,1.1423,1.1423,0,1.1036,1.1079,1.1102,1.1117,1.1163,1.1173,1.1193,1.1225,1.1243,1.1271,1.1283,1.1313,1.133,1.1354,1.1384,1.1387,1.1415,1.1425,1.1429,1.1428,1.1434,1.1433,1.1426,1.1443,1.1443,1.1443,1.1443,0,1.1033,1.105,1.1093,1.1107,1.1127,1.1159,1.1178,1.12,1.1229,1.1248,1.1275,1.1293,1.1331,1.1354,1.1378,1.1402,1.141,1.1424,1.143,1.1422,1.142,1.1433,1.1433,1.1443,1.1443,1.1443,1.1443,0,1.1013,1.1043,1.107,1.1111,1.1121,1.1134,1.117,1.1185,1.1209,1.1233,1.1241,1.1279,1.1307,1.1339,1.1378,1.1394,1.1418,1.1426,1.1406,1.141,1.1412,1.1411,1.1413,1.1415,1.143,1.143,1.1429,0,1.1009,1.1023,1.1065,1.108,1.1098,1.1122,1.114,1.1171,1.1189,1.1227,1.1238,1.1268,1.1294,1.1338,1.1369,1.14,1.141,1.1408,1.1415,1.1406,1.141,1.1409,1.1411,1.1406,1.1406,1.1406,1.1406,0,1.1,1.1014,1.1038,1.1068,1.1088,1.1113,1.1139,1.115,1.1187,1.1206,1.1234,1.1254,1.1294,1.1324,1.1358,1.138,1.1399,1.1403,1.1406,1.1398,1.1386,1.1393,1.1402,1.1403,1.1403,1.1404,1.1404,1.1404,1.0989,1.1002,1.1034,1.106,1.1083,1.1106,1.1123,1.1148,1.1172,1.1207,1.1224,1.1253,1.1286,1.1333,1.1354,1.1378,1.1384,1.1388,1.1389,1.1389,1.1387,1.1381,1.1384,1.1384,1.1384,1.1384,1.1384,0,1.0981,1.1003,1.1026,1.1062,1.1082,1.1098,1.1128,1.1144,1.1169,1.1197,1.1222,1.1255,1.1284,1.1318,1.1349,1.1362,1.1371,1.1369,1.1369,1.1373,1.1379,1.1374,1.136,1.136,1.136,1.136,1.136,1.136,1.098,1.1003,1.1021,1.1056,1.1078,1.1105,1.1121,1.1144,1.1166,1.1202,1.1226,1.1247,1.1278,1.1312,1.1339,1.1348,1.1359,1.1354,1.1366,1.1371,1.1373,1.1375,1.137,1.1356,1.1356,1.1358,1.1358,1.1358]},{"header":{"parameterUnit":"m.s-1","parameterCategory":1,"la1":30.2991,"la2":30.254,"lo1":-89.0895,"lo2":-89.0444,"dy":0.0017,"dx":0.0017,"nx":28,"ny":28,"refTime":"2023-07-31T09:00:00:Z","depth":0,"parameterNumber":3,"parameterNumberName":"V-component_of_WINDS"},"data":[0,0,0,0,0,0,0,0,0,0,0,0,0,0,0,0,0,0,0,0,0,0,0,0,0,0,0,0,0,0,0,0,0,0,0,0,0,0,0,0,0,0,0,0,0,0,0,0,0,0,0,0,0,0,0,0,0,0,0.3747,0.3747,0,0.3747,0.3747,0.3747,0.3757,0.3758,0.3758,0.3758,0.3758,0.3757,0.3757,0,0,0,0,0,0,0,0,0,0,0,0,0,0.3752,0.3752,0.3747,0.3747,0.3747,0.3747,0.3747,0.3747,0.3757,0.3758,0.3758,0.3758,0.3758,0.3757,0.3757,0,0,0,0,0,0,0,0,0,0,0,0,0,0.3751,0.3752,0.3747,0.3752,0.3753,0.3747,0.3747,0.3747,0.3757,0.3758,0.3758,0.3758,0.3758,0.3757,0.3757,0.3747,0,0,0.3756,0.3756,0,0,0,0,0,0,0,0,0.3751,0.375,0.3751,0.3752,0.3752,0.3753,0.3749,0.3747,0.3757,0.3755,0.3758,0.3759,0.3756,0.3755,0.3755,0.3747,0.3747,0.3756,0.3756,0.3755,0.3755,0,0,0,0,0,0,0,0.3751,0.375,0.3747,0.3751,0.3752,0.3753,0.3753,0.3749,0.3753,0.3756,0.3756,0.3756,0.3756,0.3755,0.3755,0.3747,0.3756,0.3756,0.3755,0.3755,0.3726,0.3726,0,0,0,0,0,0,0.375,0.375,0.3747,0.3747,0.3752,0.3753,0.3753,0.3752,0.3753,0.3754,0.3756,0.3757,0.3755,0.3755,0.3755,0.374,0.3755,0.3755,0.3755,0.3727,0.3726,0.3725,0,0,0,0,0,0,0.375,0.375,0.3747,0.3749,0.3749,0.3752,0.3751,0.3752,0.3751,0.3754,0.3754,0.3754,0.3756,0.3755,0.3748,0.374,0.3755,0.3755,0.3727,0.3726,0.3726,0.3712,0,0,0,0,0,0,0.3751,0.375,0.3747,0.3749,0.3749,0.3741,0.3751,0.3752,0.375,0.3751,0.3752,0.3753,0.3756,0.3748,0.3747,0.374,0.3754,0.3728,0.3727,0.3726,0.3714,0.3711,0.3709,0,0,0,0,0,0.3751,0.3744,0.3747,0.3747,0.3745,0.3741,0.3741,0.3745,0.375,0.3746,0.3747,0.3753,0.3741,0.3747,0.3747,0.3739,0.3728,0.3727,0.3726,0.3714,0.3712,0.3709,0,0,0,0,0,0,0.3743,0.3745,0.3748,0.3742,0.3741,0.3743,0.3739,0.3742,0.374,0.3741,0.3746,0.3746,0.3737,0.3737,0.3744,0.3727,0.3736,0.3734,0.3727,0.3724,0.3722,0.3722,0.3754,0,0,0,0,0,0.374,0.3737,0.3739,0.3733,0.3733,0.3735,0.3734,0.3737,0.3736,0.3736,0.3736,0.3735,0.373,0.3728,0.3724,0.3713,0.3712,0.3707,0.3705,0.3704,0.3702,0.3693,0.369,0.3721,0.3721,0.3721,0,0,0.3735,0.3736,0.3734,0.3732,0.3731,0.3726,0.3735,0.3731,0.3727,0.3735,0.3727,0.3727,0.3726,0.3715,0.3711,0.3716,0.3693,0.3702,0.3701,0.37,0.3691,0.3688,0.3686,0.3721,0.3721,0.3721,0,0,0.3723,0.3724,0.3718,0.3717,0.3716,0.3717,0.3715,0.3715,0.3715,0.3708,0.3713,0.3707,0.3701,0.3698,0.3696,0.3678,0.3682,0.3677,0.3666,0.3657,0.3654,0.3652,0.3643,0.364,0.3676,0.3676,0.3676,0,0.3717,0.3711,0.3715,0.3709,0.3706,0.3712,0.3705,0.3703,0.3701,0.3698,0.3703,0.3692,0.3692,0.368,0.3675,0.3674,0.367,0.3677,0.3655,0.3652,0.365,0.3642,0.3639,0.3675,0.3675,0.3675,0.3675,0,0.3702,0.3697,0.3692,0.3688,0.3685,0.3679,0.368,0.3676,0.3678,0.3678,0.3668,0.3667,0.3662,0.3659,0.3662,0.3646,0.3649,0.3654,0.3663,0.3646,0.3638,0.3635,0.3674,0.3674,0.3674,0.3674,0,0,0.3688,0.3683,0.3681,0.3678,0.3675,0.3671,0.3663,0.3657,0.3652,0.365,0.3641,0.3634,0.3637,0.3635,0.3637,0.3629,0.3611,0.3635,0.3635,0.3629,0.359,0.3585,0.3582,0.3614,0.3613,0.3613,0.3589,0,0.3675,0.3662,0.3663,0.365,0.3643,0.3647,0.3639,0.3635,0.3634,0.3628,0.3627,0.362,0.3627,0.3624,0.3617,0.3615,0.3603,0.3617,0.3604,0.3604,0.3604,0.3578,0.3574,0.3552,0.3587,0.3586,0.3586,0,0.3659,0.3653,0.3639,0.3633,0.3631,0.3624,0.3617,0.3611,0.3606,0.3605,0.36,0.3602,0.3592,0.36,0.3585,0.3594,0.3588,0.3586,0.3585,0.3584,0.3593,0.3574,0.3545,0.3541,0.3581,0.3582,0.3582,0,0.3647,0.3636,0.3625,0.3623,0.3616,0.3611,0.3608,0.3603,0.3598,0.3591,0.3587,0.3579,0.3575,0.3568,0.3567,0.3574,0.355,0.3559,0.3547,0.3547,0.3542,0.3542,0.351,0.3541,0.3541,0.3541,0.3541,0,0.3632,0.3622,0.3619,0.3613,0.3601,0.3601,0.3589,0.3587,0.3581,0.3573,0.3575,0.3567,0.3566,0.3557,0.3556,0.3541,0.354,0.3537,0.3537,0.3537,0.3536,0.3533,0.3533,0.354,0.354,0.354,0.354,0,0.3617,0.3615,0.3603,0.3597,0.3595,0.3586,0.358,0.3572,0.357,0.3559,0.3556,0.3552,0.3541,0.3539,0.3526,0.3525,0.3507,0.3509,0.3508,0.3508,0.3495,0.3496,0.3459,0.3453,0.3489,0.3488,0.3488,0,0.3608,0.36,0.3592,0.3585,0.3582,0.3573,0.3567,0.3565,0.3559,0.3549,0.3542,0.353,0.3521,0.3503,0.3498,0.3487,0.3488,0.3475,0.3486,0.3485,0.3485,0.3485,0.3482,0.3473,0.3473,0.3473,0.3473,0,0.359,0.3588,0.3579,0.3569,0.3561,0.3553,0.3546,0.354,0.3537,0.3529,0.3517,0.351,0.3495,0.3483,0.3471,0.3466,0.3468,0.3469,0.3465,0.3464,0.3463,0.3461,0.3501,0.347,0.347,0.347,0.347,0.3471,0.3576,0.3568,0.356,0.3549,0.3542,0.3534,0.3525,0.352,0.351,0.3498,0.3497,0.3483,0.3473,0.3457,0.3452,0.3439,0.3443,0.3438,0.3437,0.3435,0.3433,0.3466,0.3437,0.3437,0.3438,0.3438,0.3438,0,0.3556,0.355,0.354,0.3528,0.3518,0.352,0.351,0.3502,0.3489,0.348,0.347,0.3454,0.3441,0.3434,0.342,0.3411,0.3411,0.3407,0.3407,0.3406,0.3431,0.3435,0.3407,0.3407,0.3407,0.3407,0.3407,0.3407,0.3545,0.353,0.3527,0.3507,0.3501,0.3487,0.348,0.3471,0.3464,0.3445,0.3434,0.3429,0.342,0.3405,0.3392,0.339,0.3384,0.3379,0.3377,0.3401,0.3404,0.3407,0.3411,0.3378,0.3378,0.3352,0.3352,0.3352]}]]